CAPE
1136 1377 1241 1249 1362 1442 1347 1360 1274 1165 1100 1050 922 780 756 756 625 621 1036 1118 1276 1427 1673 1758 1822 1795 1613 1946 1934 2301 2909 2870 3035 3348 3608 3737 3648 3617 3488 3986 3871 3633 3830 3818 3489 3744 3886 3737 3593 3592 3758 3686 3506 3184 2947 3462 3791 3859 3821 3617 3204 2966 2639 3036 3287 3533 3970 3875 3144 3070 3267 3614 3159 4160 3878 3541 3584 4136 4200 4414 4975 4567 4770 4697 4326
1104 1226 1238 1242 1254 1315 1218 1152 1158 1120 999 981 902 839 774 769 758 791 750 861 1081 1069 1361 1392 1595 1600 1519 1801 2129 2280 2842 3144 2882 2944 3333 3438 3515 3394 3558 3883 3923 3778 3863 3846 3908 3659 3978 4062 3794 3675 4006 3783 3427 3092 2894 2552 2778 3026 3660 3416 3474 3534 3051 3038 3382 3611 3649 3869 4332 4056 3688 3854 3500 4169 4234 4088 3976 4285 4344 4134 3597 4314 4733 4439 4424
894 1214 1287 1305 1304 1225 1198 1205 1116 1044 924 882 782 714 760 739 748 741 473 503 865 872 1098 1053 1526 1688 1445 1671 2200 2272 2698 2728 2638 2893 3070 3384 3434 3140 3057 3464 3599 3498 3694 3786 3563 3713 3675 3763 3396 3480 3702 3609 3680 3320 2929 3094 2782 3013 3186 3266 3437 3308 3479 3188 3347 3571 3627 3752 4153 3399 3533 4118 4035 3907 4030 3964 4190 4705 4943 3861 3513 3889 4678 4257 4400
752 1145 1195 1180 1204 1258 1299 1206 996 916 800 795 737 690 629 663 762 594 508 448 660 885 936 977 1488 1714 1509 1707 2072 2031 2397 2456 2533 2737 3097 3181 3239 3518 3537 3517 3373 3300 3316 3378 3391 3599 3392 3462 3234 3094 3418 3660 3699 3724 3653 3452 3354 3603 3340 3540 3816 3509 3768 3870 3651 3566 3546 3670 3990 4148 3863 3964 3980 3982 4126 4067 4229 4460 4397 4155 3788 3907 4573 4273 4117
660 913 981 978 992 1142 1185 1123 1049 928 791 724 705 640 590 572 632 536 500 436 546 774 1104 1218 1442 1637 1227 1482 1752 1961 2052 2327 2597 2419 2610 2863 3100 3068 3231 3567 3480 3428 3324 3449 3483 3613 3561 3336 3105 3234 3540 3507 3457 3490 3272 3704 3611 3260 3296 3473 3923 3716 3941 4039 4133 3992 3815 3826 3925 4377 4565 4205 4266 4336 4304 4078 4143 4546 4668 4538 3787 3816 4423 4243 3678
701 649 599 832 988 1098 1171 1069 1017 983 862 760 671 607 558 518 534 592 488 454 516 582 970 1111 1204 1494 1416 1368 1614 1917 2093 2272 2584 2599 2304 2576 2906 2935 3012 3290 3160 3319 3277 3204 3450 3534 3473 3558 3396 3277 3333 3290 3078 3047 3497 3571 3584 3456 3452 3556 3655 3834 4125 4178 4199 4287 4164 4033 4086 3937 4282 4217 4202 4416 4566 4250 4083 4094 4284 4156 4153 4152 4311 4300 3956
712 705 655 590 1035 1183 1106 1065 1047 994 1011 852 727 637 525 460 434 508 529 473 455 439 519 919 1246 1331 1588 1516 1456 1839 2088 2083 2499 2656 2550 2576 2828 3024 2613 2892 2973 3106 3123 2905 2861 3081 3237 3220 3445 3515 3434 3429 3231 3171 3429 3678 3280 3250 3616 3772 3652 3782 3684 3782 4067 4099 4024 3938 3802 4002 4036 3985 4244 4086 4357 4682 4308 4392 4177 4208 4243 4095 4741 4648 4554
799 718 717 661 1092 1355 1181 1045 999 1044 1054 1125 985 761 594 468 443 403 511 534 447 388 368 501 978 1098 1299 1422 1540 1804 2168 2115 2420 2628 2613 2522 2622 2816 2789 2621 2547 2774 2848 2912 2853 2642 2854 2988 2876 3255 3465 3539 3591 3419 3336 3274 3574 3416 3344 3650 3666 3780 3487 3393 3731 3707 3859 3710 3745 3422 3701 4151 4329 4296 4413 4611 4698 4819 4415 3974 3937 3996 4025 4635 4601
870 802 724 835 1222 1516 1312 1144 1103 1095 1104 1264 1160 967 822 672 528 450 478 500 426 401 378 334 523 800 952 1262 1365 1494 1610 1830 1931 2214 2414 2544 2503 2259 2438 2599 2560 2609 2838 2665 2724 2989 2794 2629 2713 2774 3299 3592 3320 3253 3144 3318 3496 3517 3777 3941 3865 3808 3799 3634 3775 3784 3863 3748 3645 4037 4096 4030 4068 4206 3838 4107 4134 4095 4400 4018 4068 4146 4220 4266 4363
870 852 833 1032 1382 1266 1542 1410 1320 1254 1230 1279 1339 1146 989 929 700 601 508 441 405 450 461 474 417 561 803 1142 1264 1250 1330 1471 1708 1183 1455 2093 2383 1916 2055 2534 2531 2460 2799 2861 2579 2786 2789 2552 2342 2936 3101 3097 2904 2593 2380 2345 2426 2773 3334 4072 3990 3812 3835 3700 3705 3765 3719 3614 3478 3504 3389 3209 3219 3850 3941 3759 3978 4528 4449 4536 4411 4216 4244 4143 4317
872 878 866 1259 1308 1318 1542 1498 1473 1528 1565 1487 1478 1331 1188 1073 1015 937 686 476 480 491 484 516 493 434 450 614 858 901 998 984 857 709 728 793 1444 2108 2164 2557 2858 2831 2619 2993 2900 2441 2643 2837 2854 3001 3213 2790 2702 2284 2262 2156 2160 2156 2132 2463 3242 3607 3619 3641 3540 3444 3609 3370 3218 3423 3212 3452 3552 3494 3782 3483 3568 3961 4220 4339 4035 3980 4127 3771 3605
886 1020 1195 1358 1523 1595 1440 1504 1531 1612 1658 1564 1539 1540 1422 1318 1331 1260 1043 716 973 672 711 711 714 737 747 709 641 644 824 625 29 0 0 0 366 1378 1691 1918 1992 2444 2558 2300 2585 2589 2491 2536 2851 2651 3030 3407 3500 3511 2602 2135 2115 2125 2139 2164 2162 2185 2465 3166 3457 3510 3656 3456 3331 3309 3287 3271 3750 4100 3746 3451 4104 4148 4482 4348 4226 3760 3797 3854 3810
930 1159 875 1297 1573 1620 1588 1664 1707 1659 1761 1731 1761 1760 1680 1579 1472 1315 904 777 785 832 864 905 941 986 1005 971 957 896 852 737 616 39 0 0 0 293 1036 1521 1658 1872 2220 2436 2309 2590 2778 2722 2626 2718 2591 2786 3053 3240 3784 3730 2571 2143 2143 2116 2104 2124 2143 2123 2189 2980 3086 3700 3607 3404 3507 3718 4025 4077 4113 4242 4402 3969 3919 4178 4160 4054 3904 3877 3992
971 1118 1429 1560 1629 1630 1748 1695 1709 1747 1882 1922 1910 1857 1777 1753 1608 1417 1288 1345 1329 1182 928 957 1034 1076 1131 1175 1191 1173 1170 1114 1005 854 455 0 0 94 899 1092 1521 1692 1859 2186 2249 2447 2867 2969 2848 2881 3024 3160 3219 3229 3402 3586 3874 3254 2523 2256 2568 2455 2024 2052 2138 2122 2121 2737 3303 3618 3857 4120 4003 4081 4080 4386 4149 3885 3725 3666 3864 4031 3963 3802 3837
1923 1443 1559 1523 1564 1697 1808 1796 1878 1985 2050 2086 2046 1961 1938 1905 1810 1619 1440 1435 1523 1466 1029 1011 1095 1158 1218 1282 1351 1389 1374 1374 1315 1202 1049 828 121 5 652 991 1176 1589 1832 2099 2448 2401 2618 2975 2955 2831 3115 3400 3350 3235 3342 3508 3672 3595 3576 3321 3034 2967 3156 2903 2477 2368 2234 2309 2968 3406 3693 4009 4280 4329 4213 4203 4101 3919 3769 3790 3765 3941 3539 3432 3096
2255 2240 1824 1787 1721 1711 1718 1813 1939 2024 2047 2085 2101 2073 2089 2140 2102 1876 1617 1438 1315 1279 1482 1139 1192 1234 1305 1395 1471 1534 1590 1613 1584 1518 1384 1195 890 480 556 1180 1397 1470 1860 2211 2399 2704 2650 2784 3050 2994 2992 3306 3175 2420 2541 3070 3316 3375 3403 3325 3222 3166 2986 2996 2794 2892 3254 3337 3339 3235 3309 3653 3592 3949 3697 3350 3690 4056 3670 3208 3168 3288 3132 3117 3292
1412 1977 2497 2096 1953 1864 1801 1775 1994 2053 2111 2117 2108 2110 2146 2194 2160 2074 1850 1436 1267 1276 1508 1288 1276 1334 1352 1438 1527 1632 1731 1784 1768 1745 1679 1542 1263 961 690 1094 1493 1594 1713 2168 2417 2594 2722 2836 2952 2897 2862 3157 2899 2238 1832 1859 2725 2954 3124 3080 2997 2725 2649 2937 2632 2280 2097 2031 2265 2335 2267 2210 2157 2008 1866 1799 2196 2616 3128 3260 3301 3214 3502 3347 3268
1382 1463 1609 2336 2809 2504 2172 2081 2187 2285 2321 2250 2214 2133 2187 2207 2164 2290 2060 1752 1281 1619 1633 1637 1396 1406 1435 1506 1588 1702 1783 1899 1975 1984 1913 1809 1596 1361 1072 1177 1466 1716 1774 2002 2369 2620 2731 2492 2806 2873 2738 2858 2566 2103 1725 1480 2316 2687 2924 2862 2820 2855 2898 2671 3016 3131 1899 1722 1623 1584 1562 1560 1539 1525 1546 1523 1533 1594 2487 3055 3017 2784 3429 3604 3198
1153 1418 1575 1548 1550 2454 2443 2799 2426 2278 2328 2280 2116 2151 2281 2373 2377 2560 2205 2015 1861 1868 1804 1815 1805 1750 1554 1561 1676 1787 1880 1966 2057 2135 2076 2005 1862 1672 1427 1332 1472 1662 1767 1970 2328 2514 2750 2479 2215 2294 2572 2650 2235 1926 1649 1528 2188 2551 2858 2899 2779 2742 2645 2898 3269 3609 3486 2500 2045 1714 1550 1374 1352 1380 1421 1412 1476 1510 1776 2664 2865 3043 3325 3570 3484
1159 1361 1682 1712 1651 1777 2242 2442 2942 2774 2454 2490 2458 2457 2605 2430 2502 2458 2213 2186 2130 2121 2028 2006 1946 1957 1860 1537 1723 1858 1976 2084 2190 2261 2267 2169 2049 1890 1694 1417 1524 1627 1814 1836 2138 2478 2527 2720 2364 1602 1555 1707 1845 1730 1525 1386 1934 2501 2648 2728 2788 2877 2835 3138 3364 3515 3447 3511 3408 3446 3173 3068 3136 2625 2496 2362 1578 1598 1515 2300 2862 3293 3711 3848 3415
1259 1371 1432 1540 1670 1784 1936 2162 2579 2613 2870 2842 2798 2780 2673 2516 2413 2458 2274 2203 2202 2216 2159 2087 2014 2073 1976 2000 1713 1878 2055 2245 2381 2472 2466 2416 2273 2058 1804 1623 1511 1696 1880 1952 2020 2074 2394 2514 2470 2130 1562 1365 1349 1393 1353 1302 1273 2121 2671 2747 2812 2854 2806 3287 3409 2993 3040 3046 3153 3114 3188 3386 3126 2912 2918 3057 2703 1963 1863 1918 2626 3364 3761 3866 3314
851 1506 1671 1660 1684 1759 1907 1967 2097 2184 2597 2784 2967 2959 2996 2836 2706 2675 2156 2230 2422 2334 2247 2076 2044 1984 2094 2262 2331 2409 2507 2619 2692 2710 2716 2628 2523 2256 2038 1778 1566 1727 1902 2046 2056 1992 2071 2371 2730 2397 1792 1494 1305 1208 1199 1200 1216 1207 2576 2172 2190 1970 2272 2580 2904 3126 3027 2809 2656 2611 2683 2825 2884 2757 2606 2740 2969 2812 2481 2366 2431 3119 3723 3726 3632
530 844 1360 1623 1763 1635 1710 1845 2123 2122 2192 2512 2600 2640 2959 2998 2987 2889 2848 2678 2629 2502 2404 2237 1962 1869 2037 2197 2382 2574 2688 2774 2796 2825 2809 2768 2698 2568 2309 2020 1716 1493 1660 1961 2033 2005 2160 2362 2546 2126 1755 1499 1335 1230 1172 1151 1141 1163 1186 1265 1442 1554 1480 1837 2123 2374 2635 2514 2316 2427 2603 2737 2832 3040 2986 3030 3018 3171 3248 3223 3263 3211 3466 3723 3954
348 466 626 904 1130 1170 1273 1568 1857 1881 1994 2220 2300 2571 2701 2713 2856 2932 2868 2568 2317 2203 2122 2137 2216 2203 2075 2176 2334 2503 2770 2811 2872 2880 2883 2865 2816 2742 2606 2342 1989 1652 1399 1698 1899 2072 2148 2400 2579 1917 1582 1403 1278 1182 1124 1099 1084 1084 1088 1100 1123 1154 1182 1479 1851 2164 2253 2129 2229 2456 2477 2692 3096 3194 3184 3373 3360 3582 3903 3876 3976 3889 3882 3938 4007
271 287 303 397 561 884 1096 1206 1440 1768 1994 2015 2149 2590 2797 2460 2823 2789 2815 2790 2763 2674 2637 2442 2506 2552 2534 2604 2804 2769 2623 2702 2790 2865 2910 2951 2925 2877 2750 2582 2328 1988 1663 1464 1672 1870 1915 1967 1834 1677 1468 1300 1202 1120 1070 1046 1034 1033 1025 1025 1054 1064 1117 1263 1758 2104 2014 2100 2231 2091 2325 2733 3255 3490 3572 3892 4054 4006 3888 3905 3862 3957 3778 3598 3360
179 246 250 244 249 387 612 754 957 1204 1620 1962 2068 2090 2542 3065 2903 3002 2990 2798 2891 2858 2897 2786 2617 2760 2822 2907 2921 2661 2862 2991 2769 2772 2858 2926 2983 2982 2907 2751 2575 2344 2038 1734 1462 1340 1381 1426 1452 1407 1313 1229 1201 1184 1171 1142 1088 1061 1066 1051 1083 1152 1208 1260 1660 1843 2148 2008 2309 2465 2796 3116 3303 3596 3923 4217 3991 3645 3293 3341 3540 3488 3085 3372 2912
0 1 185 207 231 229 342 451 492 570 1160 1803 2177 2295 2642 3230 3304 3159 3164 3137 3021 2962 2868 2812 2895 2841 2941 2980 2904 2730 2844 3053 3065 2918 2783 2874 2970 3052 3017 2912 2778 2596 2357 2094 1833 1555 1316 1216 1202 1210 1241 1283 1307 1309 1302 1298 1283 1281 1282 1270 1260 1286 1318 1491 1920 2328 2382 2530 2654 2898 3055 3244 3462 3710 3861 3740 3546 3331 3154 3304 3064 3028 3072 3058 2451
0 0 1 137 198 155 215 237 277 379 442 964 1788 2506 2601 3031 3209 3462 3639 3259 3083 3187 3125 3062 3051 3047 3073 2776 3041 3042 2808 3062 3091 3039 2762 2757 2822 2887 2998 3014 2941 2800 2604 2403 2164 1863 1564 1382 1321 1325 1343 1362 1378 1386 1377 1383 1406 1416 1424 1426 1425 1421 1432 1461 1578 2320 2866 2894 3056 3224 3210 3155 3442 3538 3504 3338 3191 3006 3141 2997 2899 3004 2846 2772 2464
0 0 1 3 2 78 165 179 210 253 346 636 1226 1957 2637 2934 3082 3347 3687 3737 3410 3142 3119 3346 3211 3104 3035 3309 3432 3313 3239 3237 3205 2656 2747 2772 2733 2664 2753 2890 2924 2851 2732 2654 2511 2282 1938 1596 1439 1420 1432 1451 1453 1467 1474 1495 1509 1508 1540 1569 1577 1559 1520 1545 1713 2120 2517 2727 2913 3126 3281 3396 3398 3305 3148 2972 2895 2985 2986 2594 2852 2823 2813 2530 2334
0 0 0 1 2 2 5 103 222 231 235 228 650 1366 2086 2705 2963 2985 3154 3304 3317 3191 3142 3544 3614 3282 3201 3333 3640 3522 3539 3476 2798 2645 2610 2597 2570 2409 2517 2594 2641 2639 2584 2573 2470 2336 2223 2029 1716 1675 1726 1637 1524 1539 1683 1914 2009 2041 2034 1766 1700 1675 1693 1790 1940 2203 2504 2760 2961 2984 3110 3225 3423 3458 2848 2524 2852 2481 2540 2179 2386 2413 2297 2316 2228
2 0 0 0 1 3 3 6 11 13 112 9 221 729 1384 2095 2771 3027 3156 3247 3112 3214 3209 3158 3039 2940 3024 3592 3151 2911 2828 2771 2728 2637 2638 2590 2419 2539 2585 2637 2661 2570 2435 2390 2353 2286 2200 2142 2015 1815 1618 1751 1822 1823 1909 2044 2168 2314 2361 2324 2115 2007 1722 1928 2090 2098 2170 2441 2669 2936 3233 3361 2753 2539 2474 2197 2093 2092 2099 2101 2102 2173 2164 2087 2072
4 1 0 0 1 5 6 8 14 10 10 9 82 420 1038 1691 2161 2593 3185 3268 3242 3244 3093 3023 2972 2988 2995 2949 3205 3795 2940 2823 2792 2796 2801 2768 2697 2620 2709 2761 2770 2686 2592 2515 2429 2321 2244 2181 2096 2000 1884 1764 1676 1756 1821 2160 2314 2439 2508 2508 2549 2358 2114 2093 2132 2240 2227 2284 2617 2886 3078 2764 2325 2227 2082 2075 2076 2063 2005 1947 1952 1723 1371 1261 1345
5 4 1 0 2 5 5 9 10 7 86 171 199 193 623 1174 1818 2316 2494 2890 3236 3197 3125 3058 3005 2998 2974 2973 2936 2968 2938 2904 2931 2922 2933 2896 2854 2818 2798 2801 2828 2794 2664 2598 2535 2460 2360 2281 2220 2139 2050 1954 1842 1874 2046 2120 2285 2483 2622 2682 2695 2734 2591 2528 2066 2430 2299 2386 2651 2881 2785 2056 1964 1972 1967 1990 2034 2068 1916 1778 1821 1797 1712 1464 1230
5 7 6 3 4 4 4 5 4 5 8 9 48 31 349 787 1480 2083 2414 2544 2653 3054 3119 3128 3176 3107 3069 3041 3025 3011 3002 2966 3001 3021 3000 2954 2896 2868 2836 2867 2924 2912 2847 2676 2664 2626 2558 2487 2409 2330 2208 2052 1952 1870 2079 2284 2383 2528 2636 2711 2809 2869 3081 3372 2890 2374 2120 2180 2170 2334 2109 1758 1789 1802 1882 1928 1905 1814 1609 1570 1638 1680 1553 1457 1502
7 6 8 8 2 2 2 2 1 3 196 284 326 317 106 394 896 1576 2038 2473 2721 2784 2808 3020 3157 3297 3316 3212 3165 3132 3088 3072 3072 3078 3040 3002 2959 2935 2935 2960 3009 3005 2935 2799 2726 2702 2640 2563 2495 2455 2407 2327 2171 1971 2288 2424 2514 2592 2610 2698 2823 2846 3097 3349 2749 2317 1962 1868 1829 1909 1977 1652 1726 1815 1876 1893 1823 1706 1755 1779 1655 1623 1524 1442 1510
3 4 2 8 2 2 1 2 2 2 4 6 356 365 354 412 475 827 1399 1923 2336 2614 2778 2843 2938 3044 3125 3187 3274 3304 3257 3206 3161 3123 3074 3036 3003 2971 2976 3052 3089 3086 3062 2977 2867 2853 2800 2759 2709 2686 2675 2612 2423 2144 2320 2372 2489 2606 2673 2647 2644 2871 3006 3231 2746 2378 1891 1788 1742 1723 1645 1612 1672 1839 1936 1957 1920 1679 1623 1542 1456 1459 1594 1615 1642
2 2 2 3 6 3 1 2 2 1 2 4 6 176 416 472 483 495 660 1067 1534 1991 2406 2664 2752 2822 2817 2858 2923 3040 3141 3229 3278 3319 3292 3252 3213 3145 3097 3066 3064 3034 3000 3037 3032 3039 3004 2928 2820 2819 2831 2811 2665 2517 2256 2229 2408 2631 2539 2608 2821 3102 3208 3238 2438 2012 1927 1853 1795 1756 1744 1774 1843 1934 2046 2175 2178 1940 1632 1537 1476 1469 1572 1679 1630
2 2 2 3 2 3 4 2 1 2 5 6 6 7 7 9 436 550 551 585 871 1411 1926 2343 2621 2695 2622 2656 2622 2638 2692 2840 2958 3059 3164 3283 3298 3322 3316 3283 3239 3145 3082 3037 2950 2953 2959 2939 2899 2926 2911 2834 2784 2754 2600 2345 2486 2680 2804 2910 3042 3168 2790 2755 1977 1932 1927 1904 1920 1947 1984 2043 2090 2136 2146 2077 2033 1992 1811 1508 1368 1246 1271 1389 1274
3 1 0 0 1 4 4 2 2 3 4 3 2 5 7 5 5 5 465 594 597 616 1036 1659 2202 2404 2327 2242 2225 2310 2369 2468 2542 2617 2745 2883 3047 3209 3350 3388 3271 3011 2889 2816 2749 2670 2737 2818 2878 2988 3057 2915 2839 2742 2769 2635 2486 2771 2827 2906 2855 2849 2418 2034 1977 1948 1865 1838 1858 1934 2018 2088 2119 2149 2169 2134 2097 1969 1689 1410 1180 1078 1091 1105 1268
4 2 2 0 2 3 0 1 2 2 2 3 3 5 6 6 5 3 3 25 530 636 638 640 749 1242 1802 2081 2084 2071 2089 2206 2229 2128 2230 2394 2612 2847 3023 3123 3285 3333 3250 3076 2856 2696 2561 2462 2433 2469 2616 2860 3031 3018 2957 2910 2745 2818 3056 2736 2348 2180 2380 2124 2037 1969 1927 1870 1882 1911 1956 2032 2152 2210 2166 2089 1816 1530 1378 1320 1312 1280 1263 1293 1361
3 3 4 3 2 1 2 2 2 1 2 2 3 3 4 6 4 5 3 3 3 3 376 522 606 657 910 985 1039 1304 1627 1808 1871 1856 1879 2026 2192 2388 2576 2758 2949 3056 3079 3072 2937 2753 2693 2760 2846 2794 2852 2959 3017 3042 3084 3106 3010 2880 2723 2576 2452 2286 2393 2403 2332 2240 2140 2048 2015 2003 2068 2237 2294 2247 2104 1951 1652 1307 1379 1583 1593 1476 1452 1373 1337
3 3 2 2 2 2 2 1 1 1 1 3 2 2 3 3 4 2 4 4 4 4 3 4 205 370 463 523 632 737 812 1121 1309 1421 1581 1759 1900 2031 2144 2294 2430 2670 2810 2899 2933 2818 2674 2614 2623 2679 2746 2834 2968 3016 3078 3088 3142 3082 2811 2635 2615 2569 2535 2515 2352 2501 2340 2271 2223 2246 2304 2382 2320 2242 2124 1886 1632 1862 1861 1734 1604 1494 1428 1458 1402
4 4 3 3 2 1 1 0 1 1 1 1 2 2 2 4 3 2 2 5 4 4 5 5 6 6 87 250 331 408 533 776 883 970 1173 1437 1650 1780 1884 1961 2070 2181 2320 2442 2566 2680 2592 2457 2516 2542 2504 2505 2600 2666 2770 2916 3042 2896 2931 2758 2663 2689 2768 2663 2438 2217 2342 2385 2421 2372 2441 2435 2261 2151 2034 1809 1806 1820 1714 1723 1670 1578 1522 1351 1225
4 3 4 4 2 1 1 1 1 1 0 2 2 2 4 4 3 3 3 2 2 3 2 3 4 4 105 206 239 287 393 531 692 806 932 1103 1332 1525 1692 1838 1896 1943 2050 2127 2254 2396 2387 2384 2326 2332 2447 2493 2543 2768 2883 2810 2861 2914 2932 2741 2694 2705 2637 2574 2444 2379 2398 2429 2506 2406 2313 2296 2232 2112 1835 1903 1855 1665 1519 1437 1502 1348 1169 1020 867
1 3 3 2 2 1 1 1 2 1 2 2 2 2 3 2 1 3 2 1 4 3 2 2 3 3 159 201 236 283 404 496 551 657 807 974 1144 1295 1441 1563 1637 1747 1871 1924 1955 1967 1969 1980 1976 2002 2075 2163 2326 2520 2690 2827 2703 2550 2692 2948 2931 2808 2632 2400 2276 2334 2368 2394 2335 2172 2207 2238 2078 1975 1780 1766 1803 1736 1581 1545 1453 1208 1074 969 822
2 3 3 2 2 2 2 2 2 2 2 2 2 3 2 1 2 2 2 2 2 1 1 1 17 154 192 225 241 252 305 427 529 664 754 841 944 1042 1095 1126 1189 1286 1379 1490 1531 1612 1602 1550 1558 1618 1583 1676 1867 2034 2324 2388 2205 2292 2655 2701 2709 2506 2162 2399 2419 2404 2288 2142 2055 2060 2043 1943 1888 1688 1657 1730 1460 1282 1194 1070 1143 1034 878 677 616
2 3 3 2 1 1 2 2 2 2 1 2 2 2 1 2 2 2 2 3 2 1 2 2 124 178 207 229 236 236 242 283 434 620 742 795 813 822 868 906 1012 1063 1089 1088 1088 1236 1275 1265 1210 1183 1257 1401 1648 1830 1864 1753 1719 1862 2277 2328 2329 2288 2390 2644 2508 2370 2111 1778 1783 1955 1947 1816 1846 1619 1355 1172 990 1024 1000 951 876 746 651 591 548
2 2 2 3 1 2 1 2 2 3 2 2 3 2 2 2 1 1 2 2 2 1 1 2 133 189 205 209 215 216 226 255 292 363 437 514 569 602 636 692 780 868 926 955 952 961 952 955 985 1014 1072 1220 1434 1633 1713 1679 1757 1906 1968 1948 2036 2146 2323 2362 2165 1893 1582 1587 1787 1761 1722 1764 1808 1687 1467 1060 859 793 700 597 443 384 359 361 380
3 5 2 2 2 1 2 2 2 3 2 3 2 2 2 1 1 2 2 2 2 3 2 72 178 248 249 231 222 213 210 218 236 263 284 290 333 363 379 387 402 472 563 662 762 825 842 809 778 839 882 984 1176 1478 1689 1664 1637 1658 1507 1498 1776 1811 1859 1729 1484 1427 1542 1377 1142 1272 1295 1230 1116 1031 788 530 382 447 441 419 385 404 389 333 296
3 3 10 5 2 3 2 2 2 3 3 2 2 2 2 6 2 2 2 2 2 3 3 171 218 283 287 260 230 215 202 189 174 172 174 200 243 264 288 289 333 370 375 360 415 435 418 440 498 550 614 743 976 1194 1457 1552 1457 1275 1196 1346 1637 1624 1363 1164 1156 1324 1107 928 1013 1064 929 805 688 595 549 536 471 434 335 268 238 292 257 88 0
7 1 5 13 5 2 2 3 4 2 2 2 2 2 4 6 2 2 2 2 3 3 4 188 220 276 312 321 305 273 236 224 238 233 248 261 271 312 349 374 423 450 395 320 274 270 275 237 125 48 394 502 644 938 1343 1412 1189 1013 986 1101 1394 1338 1142 907 722 766 687 695 742 560 523 533 535 541 374 159 37 24 77 126 187 195 180 0 2
Wind_Speed
15 15 15 13 13 12 12 12 11 12 10 10 9 8 8 7 7 6 7 5 6 6 5 5 5 5 6 8 8 8 7 6 6 6 5 4 5 7 8 8 8 8 7 7 6 6 6 6 6 6 6 7 6 6 6 6 4 3 4 4 5 6 6 7 8 9 9 8 8 8 7 5 4 3 2 1 0 1 3 4 5 2 2 2 8
18 18 17 16 13 13 13 14 13 13 10 10 9 9 9 8 8 8 6 6 6 5 5 5 5 5 5 6 7 7 7 6 6 6 5 4 4 5 6 7 8 9 8 7 6 6 5 5 6 5 4 6 7 7 6 5 4 2 1 2 3 4 4 6 7 8 9 8 7 8 6 5 5 6 5 3 1 1 1 2 1 2 2 3 4
19 22 20 18 15 15 15 15 15 12 10 11 9 8 9 9 10 8 7 8 7 6 6 5 6 6 5 5 6 7 7 7 7 6 5 4 4 5 5 6 7 8 8 7 7 6 5 6 6 5 4 4 5 6 5 5 5 4 3 1 2 3 3 3 5 6 8 8 8 7 8 8 7 8 7 6 4 5 3 1 0 2 5 4 3
21 22 22 20 18 18 17 16 14 12 10 11 10 9 11 11 11 9 9 9 8 8 7 6 7 7 6 5 6 7 8 8 8 6 5 4 4 4 5 5 6 7 8 8 7 5 6 6 7 6 5 5 5 5 4 3 3 2 3 3 2 2 1 2 2 4 6 6 6 6 7 8 8 8 8 8 7 7 7 5 4 4 4 6 6
21 22 21 20 20 19 17 17 16 13 11 12 10 11 12 13 14 11 11 9 9 10 9 8 8 8 7 6 6 7 8 8 7 6 6 5 4 5 5 5 5 5 6 6 5 5 5 6 7 6 5 6 5 4 4 2 1 1 1 1 2 2 1 1 1 2 2 3 4 5 6 6 7 8 9 9 9 8 8 7 6 6 5 6 6
22 23 23 22 23 21 20 18 16 14 13 13 13 14 15 14 14 14 12 10 10 9 9 9 9 8 7 7 7 8 9 8 7 6 5 5 4 4 5 5 5 5 5 5 4 4 4 4 4 5 5 5 5 5 3 2 1 1 1 2 2 2 2 2 3 3 3 1 1 2 5 6 7 8 9 11 10 9 9 9 8 9 8 8 8
24 25 24 23 25 24 22 20 19 18 17 16 17 18 17 16 15 15 14 12 10 9 8 8 10 9 9 8 8 9 9 8 8 6 5 5 4 4 5 5 5 5 5 5 5 4 4 4 3 3 4 4 4 4 2 1 0 0 2 3 4 4 4 4 5 4 4 3 3 4 5 7 9 8 11 12 11 12 12 12 11 12 11 12 11
24 26 26 26 26 26 25 24 23 22 22 22 21 19 18 18 17 17 17 13 11 9 9 9 10 11 10 10 10 11 10 9 8 7 6 5 5 5 4 5 5 4 4 4 4 4 4 4 4 4 4 4 4 3 2 1 3 2 4 4 5 5 5 5 5 6 6 6 6 7 8 8 10 10 10 12 12 14 16 15 13 14 14 14 14
23 25 27 27 27 29 29 29 28 27 26 26 24 22 21 20 19 19 18 15 14 11 10 11 12 11 11 11 11 12 11 10 10 9 8 6 6 6 5 4 4 4 4 3 2 2 2 2 3 4 5 6 6 4 2 3 4 4 5 6 6 6 5 5 7 7 8 9 9 11 10 10 11 12 12 13 13 14 17 17 16 17 17 16 16
22 23 24 26 29 31 32 32 32 30 29 28 26 24 23 22 21 19 18 16 15 14 13 13 12 12 12 12 13 13 13 13 11 7 8 10 9 9 8 7 5 5 4 4 3 1 1 1 1 4 5 6 6 7 6 5 5 3 5 6 6 6 5 5 6 8 9 9 9 11 10 11 12 14 14 14 14 16 18 19 18 19 19 17 18
22 21 21 25 30 31 33 32 33 32 31 30 30 28 26 25 23 21 19 18 17 16 15 13 12 13 12 12 12 13 14 14 10 10 8 7 11 11 10 9 8 6 5 5 4 3 3 2 1 3 6 6 5 7 7 7 8 7 5 3 4 5 5 5 6 7 8 8 9 10 10 10 11 12 12 12 13 14 16 18 18 19 20 19 17
20 20 21 27 31 32 32 32 33 32 33 32 31 30 30 28 26 24 22 20 20 18 16 13 13 13 14 12 12 13 14 14 nan nan nan nan 10 12 12 11 10 9 7 6 6 6 4 4 5 5 6 7 7 8 9 10 10 9 9 8 7 6 5 4 6 7 8 7 7 8 9 10 11 13 11 11 11 12 14 17 18 18 18 18 18
23 22 22 26 29 31 32 33 33 33 33 32 33 33 32 30 27 25 21 20 21 20 17 15 14 14 13 12 11 12 15 16 16 nan nan nan nan 12 14 13 12 10 9 8 7 7 8 7 6 7 8 11 10 9 10 12 14 13 11 11 9 9 8 8 6 6 8 8 7 7 10 10 10 12 12 11 11 10 12 14 16 17 17 16 16
27 25 26 27 29 30 33 33 32 32 33 34 35 34 32 29 27 26 25 25 23 20 17 15 15 15 13 12 12 12 13 16 17 15 15 nan nan nan 16 14 14 12 11 11 11 9 9 9 8 9 10 13 13 13 13 13 15 17 16 14 12 12 13 12 10 9 9 9 8 8 10 13 11 11 12 13 12 11 12 12 13 14 15 15 14
34 30 29 29 29 31 32 33 33 33 34 35 35 34 32 30 29 28 27 25 23 21 19 16 16 15 13 12 12 12 13 13 18 17 17 17 18 nan 20 18 17 16 15 14 13 12 12 12 10 9 11 14 16 17 16 17 18 18 17 17 16 14 14 15 16 17 17 16 13 11 11 13 13 12 13 14 14 13 14 12 13 14 14 14 15
46 37 33 32 31 31 31 32 33 35 35 36 34 33 31 31 30 30 28 26 24 23 22 19 17 16 14 13 13 12 13 15 19 19 18 19 21 26 23 22 20 19 18 18 18 17 16 15 14 12 12 14 19 23 20 19 19 18 18 18 18 16 16 17 19 22 21 20 18 16 15 16 17 15 15 15 17 17 17 16 17 19 18 16 15
54 51 41 35 33 32 31 31 32 34 35 35 33 31 31 29 29 31 28 26 25 24 23 22 21 19 17 16 14 14 15 19 22 20 20 21 26 25 24 24 23 21 20 21 21 20 20 18 17 17 14 15 20 27 26 24 19 19 19 19 19 18 18 20 25 24 23 21 19 17 16 16 17 17 16 18 19 18 19 18 19 20 20 17 16
57 53 52 50 42 35 33 31 32 33 34 32 30 29 29 30 29 30 27 25 24 24 25 25 23 21 18 16 16 16 17 23 27 24 23 25 26 24 24 23 22 22 22 22 23 23 22 20 20 19 17 17 22 29 31 30 24 22 21 20 20 19 20 22 25 26 25 23 21 19 18 18 18 18 19 21 25 24 22 20 19 20 20 18 15
59 58 57 54 53 47 38 34 32 30 30 29 28 27 27 28 28 30 28 27 24 25 26 25 24 23 19 16 17 16 18 23 30 28 27 29 27 25 24 23 20 20 21 21 22 24 23 24 22 20 20 20 23 30 33 33 26 25 25 24 22 20 22 25 26 26 27 27 24 23 22 22 23 25 24 26 30 29 25 21 19 19 18 17 16
57 57 55 53 48 44 41 35 31 29 28 27 28 28 28 27 27 27 26 26 25 25 25 26 23 23 23 20 19 16 17 21 30 32 33 32 31 27 26 23 19 19 20 21 22 23 23 23 25 24 21 22 24 30 34 33 28 27 27 26 24 22 27 28 27 27 25 24 24 26 25 26 27 28 27 29 32 30 26 23 21 19 18 16 15
55 55 54 52 49 45 43 39 33 30 28 28 28 27 26 25 25 26 24 24 24 24 23 24 24 22 22 21 18 16 18 21 29 35 35 36 35 31 27 23 21 22 23 23 22 21 23 24 23 28 27 25 25 27 33 33 30 28 28 26 25 26 30 29 29 29 26 24 25 26 26 27 27 27 28 30 31 31 28 25 22 20 19 16 14
58 56 55 54 51 47 46 46 43 37 33 31 28 26 25 25 24 23 23 23 23 23 24 23 21 20 20 17 15 14 16 19 24 35 36 37 37 34 28 24 25 26 25 23 22 22 23 25 26 31 33 29 27 28 31 34 31 30 27 25 24 27 28 28 29 29 28 26 24 25 26 27 28 28 28 28 29 30 29 27 25 22 21 18 15
61 58 55 54 54 52 49 45 42 43 40 34 30 27 26 24 23 23 23 22 22 21 22 21 18 17 16 14 12 12 14 20 21 28 33 34 35 32 26 24 29 28 23 22 22 22 25 25 27 31 35 32 30 29 31 34 34 30 25 25 26 27 29 29 29 29 29 28 26 25 26 26 28 29 29 28 28 28 28 27 26 25 22 19 16
64 61 57 55 54 55 52 48 44 43 43 43 39 32 28 25 22 22 22 19 18 16 17 16 14 13 12 12 12 11 16 17 23 23 28 30 30 28 25 21 25 24 22 19 21 22 23 25 28 30 32 32 30 30 31 36 34 30 28 26 27 31 32 30 31 31 30 28 28 27 26 27 29 30 29 29 28 28 27 26 25 25 22 20 18
66 63 61 56 54 54 53 52 48 45 44 44 44 41 34 28 26 24 22 21 19 19 19 18 16 14 14 13 12 13 16 18 19 23 23 27 24 23 21 20 18 19 18 16 18 20 22 23 25 27 27 28 27 27 29 31 31 29 30 29 32 34 33 32 31 31 28 29 29 29 28 29 30 30 29 29 30 28 25 23 23 22 21 20 17
67 66 64 61 56 53 52 52 50 47 44 44 41 38 37 33 26 25 24 20 20 21 21 20 18 16 16 14 14 15 18 20 19 22 26 24 23 22 22 21 18 17 14 14 15 16 18 23 23 24 24 24 27 28 28 30 31 30 29 32 34 33 33 34 34 31 29 29 30 31 32 31 31 30 31 31 30 27 24 21 21 21 19 22 21
nan nan 66 65 61 56 52 51 52 50 50 48 40 33 34 35 30 26 25 22 20 22 23 22 21 19 16 16 17 18 19 19 20 21 26 28 26 25 24 21 19 18 17 15 16 20 20 21 23 23 22 23 23 23 24 25 31 31 31 32 31 31 33 34 34 33 32 31 32 32 32 32 31 31 30 31 31 31 28 25 22 20 23 24 22
nan nan nan 66 65 63 57 54 52 50 50 52 47 38 36 37 33 30 28 25 23 23 24 24 23 20 19 20 21 21 20 21 21 23 24 27 28 29 29 28 28 28 24 23 24 22 21 22 21 21 22 22 23 22 23 25 27 29 29 30 29 30 30 30 31 30 30 30 30 31 30 30 31 30 31 31 32 32 32 28 25 24 24 26 21
nan nan nan nan nan nan 63 58 56 53 52 52 49 45 43 43 42 38 31 29 27 26 26 28 26 24 25 26 27 26 24 23 23 26 27 28 29 29 30 30 31 31 29 30 32 29 27 24 22 23 24 24 23 22 23 25 26 26 26 27 28 30 30 31 30 29 29 30 28 29 32 32 29 30 32 31 30 32 33 30 29 25 29 28 21
nan nan nan nan nan nan nan 61 58 56 55 55 54 51 47 44 43 43 42 39 33 28 32 31 31 33 29 28 29 28 27 26 29 32 31 31 30 29 28 31 33 32 32 38 37 34 30 25 23 23 24 25 24 24 24 25 26 26 26 26 26 27 29 30 29 29 31 31 30 30 31 30 30 32 30 29 33 32 33 34 32 35 34 31 24
nan nan nan nan nan nan nan nan nan nan 58 nan 56 53 53 51 46 41 39 36 36 35 31 28 32 38 35 30 30 29 27 32 37 37 34 31 31 30 28 30 34 32 40 50 42 36 32 30 27 25 24 25 25 25 26 26 26 27 26 26 26 26 28 28 29 30 32 32 31 30 31 31 28 29 29 31 33 34 33 34 35 38 37 36 33
nan nan nan nan nan nan nan nan nan nan nan nan nan 56 55 55 53 52 51 48 39 35 37 35 34 32 30 33 34 33 31 28 31 38 36 34 33 32 31 32 34 37 44 49 43 38 35 34 33 30 28 26 26 27 27 26 27 27 27 27 27 28 28 27 29 31 33 32 32 32 31 31 30 31 33 37 38 33 33 34 36 35 35 39 40
nan nan nan nan nan nan nan nan nan nan nan 59 58 57 56 56 55 55 56 55 49 42 39 39 39 36 34 33 34 32 33 36 32 33 36 35 35 34 34 35 38 47 56 47 38 36 35 36 35 35 32 28 28 29 29 27 26 27 28 28 28 29 30 30 33 31 31 32 34 34 34 33 33 33 38 39 34 29 34 36 37 39 39 38 38
nan nan nan nan nan nan nan nan nan nan nan nan nan nan 57 57 56 57 57 58 57 55 50 45 44 45 42 40 38 35 34 34 36 36 35 36 37 36 42 48 55 52 48 42 39 35 36 35 36 37 35 32 30 30 30 29 28 27 28 28 29 30 33 37 37 33 32 33 32 32 36 35 34 36 40 36 30 30 35 38 39 42 42 39 38
nan nan nan nan nan nan nan nan nan nan 64 62 59 58 58 59 58 57 56 56 56 55 57 56 52 47 46 47 44 40 37 35 36 41 41 38 43 52 57 52 49 48 43 39 38 37 35 35 36 38 37 34 33 33 31 29 28 27 27 29 30 31 35 39 38 37 34 32 31 33 37 37 35 37 40 37 32 32 34 38 40 43 42 41 42
nan nan nan nan nan nan nan nan nan nan nan nan 61 59 58 58 58 57 56 54 54 54 56 58 59 58 48 45 46 47 45 41 40 41 44 48 52 56 49 46 45 44 43 41 39 36 35 35 36 37 38 37 37 36 33 30 28 28 29 30 30 31 34 37 40 40 37 34 34 36 40 39 37 37 38 37 34 33 36 39 40 42 44 45 45
nan nan nan nan nan nan nan nan nan nan nan nan nan 60 59 58 58 56 54 53 53 53 53 57 59 57 58 56 52 52 51 50 47 48 50 52 52 50 44 45 45 46 45 42 41 38 37 36 38 38 39 40 40 40 37 34 31 31 32 32 31 32 33 35 36 39 39 36 35 38 40 40 39 38 38 37 36 36 37 39 39 43 45 46 47
nan nan nan nan nan nan nan nan nan nan nan nan nan nan nan nan 58 57 55 55 55 53 51 52 54 54 54 56 60 59 63 66 67 64 61 60 56 50 47 44 45 46 43 41 43 43 39 38 40 40 40 42 42 42 41 38 36 35 35 36 35 31 32 35 38 38 38 37 36 38 40 40 40 40 41 38 37 39 42 43 45 48 46 45 46
nan nan nan nan nan nan nan nan nan nan nan nan nan nan nan nan nan nan 57 58 59 55 51 48 48 49 51 54 60 64 66 63 60 56 57 55 55 54 51 48 46 42 39 41 44 43 42 42 44 44 43 44 45 45 43 42 41 39 39 39 37 36 34 33 35 38 39 39 39 39 40 41 42 43 43 40 38 42 46 48 49 50 49 48 44
nan nan nan nan nan nan nan nan nan nan nan nan nan nan nan nan nan nan nan nan 55 55 52 49 47 46 49 53 58 61 58 58 59 58 58 58 56 54 52 48 46 45 42 40 42 43 45 46 46 46 44 45 48 49 47 45 44 44 45 44 40 38 38 38 39 41 42 42 41 41 41 41 43 45 43 40 39 42 46 49 50 51 52 49 44
nan nan nan nan nan nan nan nan nan nan nan nan nan nan nan nan nan nan nan nan nan nan 49 46 45 46 47 50 53 54 54 54 55 57 59 59 57 54 52 50 47 44 46 45 44 46 47 46 48 49 49 48 48 49 50 49 48 47 45 42 42 41 41 42 43 43 44 45 45 45 44 43 44 45 43 43 44 45 47 51 52 52 52 48 50
nan nan nan nan nan nan nan nan nan nan nan nan nan nan nan nan nan nan nan nan nan nan nan nan 45 45 46 45 45 47 49 48 49 51 54 55 55 53 53 51 50 49 49 48 46 47 47 45 44 48 50 50 51 53 54 50 49 49 48 44 41 43 46 46 46 47 48 48 49 48 47 46 46 46 46 49 48 49 49 51 51 54 55 55 55
nan nan nan nan nan nan nan nan nan nan nan nan nan nan nan nan nan nan nan nan nan nan nan nan nan nan nan 53 50 48 49 48 48 48 49 50 51 52 51 51 50 50 50 50 51 51 49 47 45 47 50 50 51 53 55 56 58 55 48 45 46 49 52 54 55 53 53 52 52 51 50 50 52 52 53 55 54 53 54 55 54 55 57 59 60
nan nan nan nan nan nan nan nan nan nan nan nan nan nan nan nan nan nan nan nan nan nan nan nan nan nan 52 55 57 58 58 58 57 57 58 59 60 62 62 61 59 58 58 58 55 53 52 50 49 53 60 60 61 59 56 56 58 58 56 55 55 57 60 58 55 56 55 54 54 54 54 57 59 60 60 60 55 53 51 53 55 57 59 61 62
nan nan nan nan nan nan nan nan nan nan nan nan nan nan nan nan nan nan nan nan nan nan nan nan nan nan 52 53 56 58 60 60 61 62 62 61 61 60 60 60 60 60 60 59 58 56 56 56 56 57 58 57 57 56 55 54 57 57 56 56 59 63 60 57 58 59 58 57 57 57 57 60 63 65 65 63 58 53 50 52 54 57 58 56 53
nan nan nan nan nan nan nan nan nan nan nan nan nan nan nan nan nan nan nan nan nan nan nan nan nan 56 55 54 54 57 59 61 63 63 63 62 62 61 60 61 61 61 62 61 60 59 58 58 57 55 54 53 55 59 59 58 57 58 60 61 63 63 59 58 61 63 62 62 62 60 59 61 66 66 65 63 60 57 54 53 55 56 55 52 50
nan nan nan nan nan nan nan nan nan nan nan nan nan nan nan nan nan nan nan nan nan nan nan nan 55 56 57 56 56 57 59 60 60 60 61 61 61 60 58 57 56 58 59 60 60 60 58 58 57 56 54 54 56 57 57 57 56 58 62 65 66 65 61 60 64 67 68 67 67 66 64 63 64 60 58 59 60 58 56 54 54 56 57 59 61
nan nan nan nan nan nan nan nan nan nan nan nan nan nan nan nan nan nan nan nan nan nan nan nan 54 55 56 57 57 58 59 58 57 59 59 57 56 57 57 56 54 54 56 57 59 59 59 59 58 57 57 56 56 58 59 59 59 58 60 62 63 64 65 65 68 70 70 72 72 69 66 65 63 60 57 55 53 52 52 53 54 57 61 64 64
nan nan nan nan nan nan nan nan nan nan nan nan nan nan nan nan nan nan nan nan nan nan nan nan 56 56 58 58 58 58 60 60 58 57 57 56 57 59 59 57 55 53 53 55 55 58 61 62 61 59 58 57 57 58 60 62 64 65 65 62 68 76 76 75 72 73 76 75 74 72 68 66 67 65 59 51 47 48 51 52 54 57 59 59 58
nan nan nan nan nan nan nan nan nan nan nan nan nan nan nan nan nan nan nan nan nan nan nan 63 61 59 59 59 60 61 62 63 61 58 57 58 58 59 57 57 56 54 54 56 57 59 60 61 62 62 61 61 61 61 63 65 66 65 65 66 74 81 83 84 82 79 76 74 76 72 70 71 70 68 64 61 61 62 63 61 59 58 58 nan nan
nan nan nan nan nan nan nan nan nan nan nan nan nan nan nan nan nan nan nan nan nan nan nan 68 65 63 63 62 62 63 64 65 64 62 60 60 59 57 55 53 53 52 53 55 56 59 61 63 62 nan 61 61 61 64 68 69 69 72 74 76 78 82 84 83 81 81 81 76 74 73 74 74 72 70 70 70 nan nan nan 71 68 63 61 nan nan
Wind_Direction
227 223 222 216 215 218 215 210 205 206 206 213 215 215 213 211 211 202 222 229 243 254 258 259 254 239 230 232 231 229 227 219 206 193 183 169 160 153 153 153 137 129 122 117 121 124 123 127 136 144 155 153 153 154 165 179 203 221 221 209 196 203 195 194 187 186 200 216 201 192 198 194 200 229 202 213 272 49 67 41 43 30 352 352 315
227 228 227 223 222 220 220 217 213 209 209 214 217 222 222 224 223 227 222 226 238 247 258 258 259 252 240 237 231 224 220 208 189 186 176 164 147 157 147 143 139 131 130 120 116 126 130 130 132 136 153 147 149 144 146 149 149 154 235 219 205 205 219 192 190 194 191 212 213 221 214 241 221 247 244 242 260 1 89 90 62 313 335 1 334
230 229 229 229 229 224 226 226 226 220 214 212 217 220 226 227 230 231 223 223 235 239 248 251 255 260 248 235 234 218 205 189 182 179 171 155 140 135 140 136 133 131 128 123 117 120 121 126 126 134 162 155 152 148 142 133 131 129 122 146 179 182 233 233 198 192 192 205 224 219 235 238 237 240 252 272 301 322 335 303 180 293 324 334 331
232 231 229 228 230 230 230 231 235 232 221 215 218 222 223 228 231 229 227 223 232 239 244 248 248 253 248 236 224 209 196 186 182 178 163 149 135 124 125 128 130 129 129 128 123 120 117 119 122 126 135 143 153 159 161 143 125 116 93 63 61 100 185 261 242 203 206 201 225 230 235 238 244 254 268 286 295 294 302 315 327 307 317 325 321
228 231 231 230 230 228 228 231 233 235 230 222 226 230 228 226 228 229 226 219 220 231 237 243 243 245 237 230 218 206 193 190 185 172 170 162 136 128 123 123 123 120 121 124 125 120 116 112 118 121 122 124 130 135 148 139 160 166 151 82 40 41 0 320 291 271 234 205 211 243 254 258 261 264 272 277 289 297 298 307 304 308 314 326 326
222 226 228 228 227 229 229 230 232 236 235 229 229 233 234 230 229 229 228 221 218 217 226 233 237 240 235 228 218 207 202 197 193 181 167 162 158 143 135 127 124 120 115 111 105 101 102 98 102 104 107 107 114 122 128 114 182 226 248 249 247 270 304 322 317 314 308 289 249 228 266 253 255 265 267 277 285 291 302 304 307 306 315 319 319
218 222 225 226 226 227 230 230 228 229 231 230 228 231 235 236 234 231 231 225 220 212 210 219 227 230 230 225 215 211 208 203 202 196 182 175 172 161 143 136 132 134 121 107 103 95 86 84 76 72 78 80 90 96 92 69 236 239 276 269 261 264 268 278 293 299 300 298 290 286 269 272 273 264 272 276 286 304 302 301 300 299 309 316 320
220 220 222 222 223 226 228 227 226 226 227 230 232 233 235 237 237 235 233 231 222 212 203 208 219 224 221 220 216 214 213 210 210 206 201 194 193 181 169 154 143 138 130 118 108 100 90 81 71 55 51 49 46 50 35 342 281 273 272 275 275 276 269 273 281 283 285 286 282 275 275 268 274 278 278 281 283 292 297 293 292 292 298 308 313
223 222 221 220 221 223 224 224 223 225 227 230 234 235 236 238 239 240 240 234 225 216 207 204 210 216 217 217 216 215 209 208 211 214 213 209 203 193 188 177 164 159 153 137 136 119 101 93 68 50 30 26 30 25 23 298 283 281 282 291 292 290 289 289 290 289 288 285 282 283 283 280 279 279 276 278 281 280 286 292 294 295 296 299 302
235 230 226 223 223 224 225 225 225 226 227 228 231 234 235 237 240 243 243 240 233 226 219 213 210 214 217 217 217 214 209 209 217 229 223 216 215 209 207 202 191 185 186 185 179 187 148 113 82 28 4 357 4 9 10 358 342 323 286 293 300 299 303 301 297 294 292 291 290 289 290 289 286 287 281 277 277 284 289 292 293 290 293 292 300
240 240 233 230 229 229 227 226 226 228 228 228 229 231 233 235 237 238 241 242 242 238 234 224 215 213 214 214 214 211 207 209 221 232 230 222 213 213 215 212 214 213 206 209 206 212 230 255 248 310 325 328 335 351 348 345 338 340 345 338 306 310 311 312 304 297 294 294 291 298 303 297 296 294 294 284 280 278 279 284 289 291 291 287 290
241 240 238 237 237 236 232 230 229 227 229 229 230 231 232 235 236 238 239 241 243 242 238 231 221 219 218 215 211 206 204 212 nan nan nan nan 227 214 211 211 213 217 218 216 219 227 234 249 265 266 277 291 293 300 318 329 325 325 333 341 345 355 352 316 294 292 297 295 296 301 297 299 297 302 303 300 295 285 285 290 295 295 293 293 294
235 234 234 239 242 241 238 236 233 230 230 231 232 233 234 235 236 237 239 239 241 244 242 239 234 230 226 222 213 207 203 220 236 nan nan nan nan 230 214 213 216 218 225 232 232 237 243 249 254 265 266 293 289 284 279 288 311 324 323 326 332 341 345 352 336 307 286 291 296 296 300 294 300 304 306 311 304 300 294 299 301 302 299 296 297
225 233 232 235 238 240 241 240 237 234 232 232 233 235 236 237 238 240 239 240 244 246 248 246 240 238 236 230 222 213 208 222 245 245 243 nan nan nan 224 220 220 220 226 233 237 243 251 252 256 263 272 280 283 285 281 281 281 289 297 301 307 322 333 338 337 332 318 305 302 303 300 301 305 302 303 307 309 305 301 303 302 303 301 302 300
220 225 231 233 234 236 237 239 237 236 235 234 234 235 235 234 236 237 240 244 247 249 250 251 248 249 249 245 237 228 221 228 248 252 249 250 249 nan 232 229 227 227 232 238 242 246 249 252 256 259 267 277 280 285 284 283 283 283 288 294 300 302 306 309 311 307 307 310 317 319 311 306 307 306 302 303 309 308 305 307 304 300 300 304 312
221 223 227 231 234 234 235 235 235 235 236 236 236 236 235 236 236 236 235 235 236 240 244 248 253 256 256 254 248 241 233 250 256 257 257 253 255 243 237 235 234 233 237 242 246 249 252 254 255 259 263 271 283 293 289 280 281 286 288 289 290 293 296 300 304 304 308 308 312 315 309 307 305 304 299 297 299 301 303 305 305 305 311 319 319
221 219 223 228 231 233 234 234 235 236 238 239 238 237 237 236 236 237 237 235 234 235 236 239 238 240 245 251 257 251 246 260 269 267 263 262 255 245 244 240 239 239 239 244 248 253 257 261 263 259 263 269 281 291 293 289 282 284 286 288 288 289 289 289 303 313 313 314 315 314 313 309 308 308 310 305 301 296 300 304 309 311 316 321 320
221 218 220 221 223 226 230 232 233 235 237 239 239 238 238 236 237 239 239 238 236 236 237 236 237 237 237 240 246 249 250 262 275 274 273 271 266 255 250 248 245 243 242 246 249 253 259 272 270 268 266 267 277 286 290 289 286 286 286 287 290 293 292 289 287 295 314 317 316 318 316 310 305 304 305 307 308 305 311 313 311 310 318 320 316
218 216 214 213 213 214 218 222 227 231 234 235 234 234 236 237 239 240 239 237 234 234 237 239 241 242 242 241 244 245 243 256 275 278 280 277 270 255 254 252 251 248 248 249 253 254 257 266 279 276 271 272 277 282 287 287 286 287 287 287 291 295 291 288 292 295 295 298 300 300 297 302 302 301 304 315 312 313 316 317 310 313 318 317 312
220 217 214 214 214 212 212 215 219 223 224 226 228 228 231 232 235 238 239 238 236 236 236 237 240 241 241 241 240 249 249 251 268 282 282 281 283 264 257 259 257 256 254 253 253 256 260 261 271 287 288 281 279 282 286 291 286 284 284 286 290 293 286 288 293 293 295 298 298 298 298 295 297 299 301 302 305 312 317 317 314 311 313 311 305
227 221 216 214 212 212 214 216 215 214 215 217 219 221 224 226 231 236 238 236 237 238 240 237 236 237 239 238 237 244 250 256 265 282 283 285 287 283 267 270 267 263 260 259 259 259 261 265 264 280 290 289 287 286 287 291 291 284 285 287 289 283 279 282 286 292 291 293 294 293 292 292 294 296 299 301 304 306 309 313 312 310 307 302 297
228 225 219 214 211 210 212 213 213 214 215 214 212 212 215 220 225 230 231 233 236 239 240 238 235 233 233 234 236 243 252 264 260 277 286 288 289 296 278 277 274 268 266 264 266 265 266 266 266 275 287 291 292 290 291 290 295 284 286 291 288 283 281 280 278 280 283 286 286 287 289 290 292 295 298 301 304 305 307 307 308 307 303 300 299
227 227 225 218 214 212 212 209 210 213 215 216 212 208 210 215 221 223 228 230 234 237 239 237 234 232 231 233 241 254 260 263 276 270 284 289 291 294 298 282 279 274 272 272 273 271 269 270 270 276 282 287 289 291 292 294 288 286 295 292 288 287 281 278 278 279 281 281 282 285 287 289 291 293 296 299 301 302 303 304 304 303 301 298 299
226 225 226 223 218 215 214 212 211 213 213 215 213 209 207 206 208 215 219 218 220 223 225 230 232 233 237 244 250 254 263 263 272 281 278 291 290 297 298 295 283 277 279 274 273 273 273 273 270 275 282 287 290 291 291 291 287 297 299 296 290 282 278 281 281 281 281 282 284 284 284 286 288 291 294 295 296 299 302 300 298 297 296 293 293
224 224 225 225 222 219 217 216 215 215 215 216 217 214 210 207 208 212 217 219 217 220 228 236 238 238 243 247 249 250 257 262 259 275 290 288 295 299 300 302 298 293 284 279 275 274 274 279 278 281 284 288 292 291 287 293 301 298 297 296 287 280 284 283 281 280 282 283 284 284 283 284 287 290 292 292 292 292 293 291 290 287 285 284 281
223 223 224 225 224 221 219 217 216 218 220 220 220 221 214 212 213 218 223 223 221 224 232 238 241 243 245 248 249 247 249 251 256 261 271 281 285 297 302 303 307 305 304 287 289 286 278 278 284 288 289 291 287 284 286 290 301 305 301 291 284 287 286 284 282 282 283 282 283 284 285 284 285 287 287 288 288 289 288 287 284 281 278 275 278
nan nan 223 224 225 224 222 222 221 220 219 219 224 224 216 215 218 224 226 227 228 230 236 242 244 244 243 243 246 245 243 243 250 258 265 268 271 276 281 282 296 296 283 275 273 268 272 273 275 286 291 305 309 303 301 297 292 291 290 292 294 292 290 288 286 286 286 285 284 284 283 282 280 281 284 286 287 287 288 286 281 275 274 273 278
nan nan nan 224 225 225 224 219 219 224 224 222 221 224 219 217 222 227 230 231 232 231 235 242 244 243 239 238 241 244 246 248 254 259 264 266 269 273 277 280 281 282 283 280 277 278 276 280 287 287 290 290 293 294 296 295 295 294 294 296 297 297 296 294 291 288 286 284 282 281 279 278 280 282 281 282 283 284 284 284 281 274 273 272 273
nan nan nan nan nan nan 225 225 225 225 225 224 223 223 223 222 221 221 225 233 234 231 234 239 242 242 237 237 244 248 250 254 258 263 265 270 272 273 277 280 281 282 292 293 281 276 277 281 287 295 296 298 298 302 303 301 299 298 299 297 296 296 295 294 295 295 292 288 288 285 281 279 278 277 276 276 279 281 283 285 284 279 270 270 273
nan nan nan nan nan nan nan 223 224 225 225 225 223 221 222 223 223 222 222 223 232 237 233 231 236 241 238 237 242 246 250 252 253 264 268 270 275 281 281 283 288 286 290 296 286 279 283 286 289 294 297 299 302 304 306 305 303 302 300 300 296 295 296 297 297 296 292 290 286 283 280 277 274 272 272 277 280 282 285 288 288 283 277 274 269
nan nan nan nan nan nan nan nan nan nan 225 nan 224 221 220 222 225 224 226 227 228 234 241 236 231 233 237 233 234 242 237 237 246 261 268 271 274 278 278 278 282 287 279 274 279 284 285 288 290 291 295 297 300 302 301 302 304 304 302 298 297 297 295 294 295 293 290 287 285 281 277 275 273 273 275 278 278 281 285 288 287 284 283 278 267
nan nan nan nan nan nan nan nan nan nan nan nan nan 222 222 223 222 226 226 224 230 238 242 241 241 243 242 243 237 234 244 248 249 259 266 269 272 273 275 275 275 278 278 281 278 284 288 290 290 291 293 297 299 297 298 299 300 303 301 300 297 295 294 293 289 287 287 288 287 284 279 276 276 277 277 273 271 274 280 278 274 271 269 270 271
nan nan nan nan nan nan nan nan nan nan nan 222 222 223 224 226 226 224 225 229 229 234 241 247 248 245 244 242 244 239 232 238 251 257 261 266 269 270 272 274 271 269 268 270 275 277 280 284 287 288 291 294 294 294 294 296 297 299 300 299 297 294 291 289 286 285 286 287 286 284 283 282 280 277 273 271 276 280 277 272 266 261 256 255 256
nan nan nan nan nan nan nan nan nan nan nan nan nan nan 224 226 227 228 227 226 228 234 240 245 246 247 245 245 245 241 235 232 238 249 257 261 265 265 264 259 260 271 276 273 274 274 275 279 283 287 289 291 290 290 291 292 293 295 296 297 295 291 289 286 286 287 285 283 284 285 285 286 284 280 276 277 278 275 275 276 270 265 262 260 257
nan nan nan nan nan nan nan nan nan nan 218 220 221 221 222 224 227 228 229 229 230 231 234 238 246 253 250 247 247 247 244 240 241 244 247 252 256 262 264 263 263 264 267 269 272 272 274 277 279 284 287 290 288 288 289 291 291 293 294 293 293 292 290 289 290 290 288 286 287 286 284 284 284 282 282 281 278 274 277 281 280 275 271 267 262
nan nan nan nan nan nan nan nan nan nan nan nan 218 219 222 224 225 228 229 230 232 233 236 239 238 245 250 243 242 246 248 246 246 250 252 254 263 269 265 266 269 270 271 273 273 273 274 277 279 281 284 286 287 288 289 288 289 290 289 290 294 294 293 292 292 292 291 290 288 286 286 286 285 284 283 283 283 279 276 280 284 283 279 274 270
nan nan nan nan nan nan nan nan nan nan nan nan nan 218 222 225 227 228 229 231 232 234 235 236 237 237 242 241 244 244 247 247 246 248 254 259 266 265 261 264 267 268 270 273 276 276 276 277 278 278 280 282 285 287 288 289 288 287 287 288 289 292 293 292 293 293 293 292 290 289 291 290 289 286 285 284 283 281 280 281 283 282 280 278 274
nan nan nan nan nan nan nan nan nan nan nan nan nan nan nan nan 227 229 232 232 230 231 232 233 237 236 234 236 246 247 247 247 249 249 251 254 258 258 259 259 262 266 272 280 283 282 281 280 280 281 282 284 287 290 292 292 290 287 285 285 285 286 290 289 293 296 296 295 293 290 291 293 292 289 288 288 288 288 286 286 286 286 287 288 281
nan nan nan nan nan nan nan nan nan nan nan nan nan nan nan nan nan nan 230 230 228 227 228 229 231 234 237 240 246 249 249 248 249 249 251 252 255 256 259 261 264 270 274 273 273 276 277 278 280 281 282 284 287 289 291 292 291 289 287 285 283 281 285 290 293 294 296 297 296 295 293 292 290 289 289 289 290 289 289 291 291 292 294 289 281
nan nan nan nan nan nan nan nan nan nan nan nan nan nan nan nan nan nan nan nan 225 225 224 225 227 231 237 243 247 250 248 248 249 249 250 252 255 258 261 263 264 263 267 269 270 271 272 272 274 275 278 278 281 283 285 285 286 285 285 284 284 283 284 287 289 292 294 296 297 296 295 293 290 287 287 286 284 284 286 289 290 293 294 292 283
nan nan nan nan nan nan nan nan nan nan nan nan nan nan nan nan nan nan nan nan nan nan 224 225 228 234 240 244 251 255 251 250 250 251 250 252 254 258 261 263 265 267 267 268 270 270 269 269 271 274 275 275 276 278 278 279 279 280 280 281 281 284 287 288 289 290 291 291 293 293 294 292 290 288 287 285 280 279 281 285 286 289 291 287 272
nan nan nan nan nan nan nan nan nan nan nan nan nan nan nan nan nan nan nan nan nan nan nan nan 231 235 238 242 247 256 256 255 256 255 253 254 256 259 262 264 263 264 266 269 271 272 272 272 273 274 275 277 277 278 279 281 280 279 277 277 280 285 287 288 287 289 290 291 291 293 293 292 290 287 283 277 278 277 279 281 284 287 287 284 281
nan nan nan nan nan nan nan nan nan nan nan nan nan nan nan nan nan nan nan nan nan nan nan nan nan nan nan 236 238 246 253 254 257 258 257 256 258 261 263 264 265 265 266 267 269 270 272 274 274 274 275 276 276 277 280 282 281 280 281 282 283 285 284 281 281 286 287 287 288 288 289 289 287 285 282 279 279 278 279 280 285 288 288 285 284
nan nan nan nan nan nan nan nan nan nan nan nan nan nan nan nan nan nan nan nan nan nan nan nan nan nan 238 239 240 243 245 245 246 247 247 249 251 252 253 254 255 256 258 260 262 265 267 268 268 266 266 267 267 268 271 276 278 283 286 287 286 282 275 275 279 283 285 283 282 283 283 284 284 284 283 282 283 280 281 281 283 287 291 288 282
nan nan nan nan nan nan nan nan nan nan nan nan nan nan nan nan nan nan nan nan nan nan nan nan nan nan 238 243 245 245 245 245 246 246 247 249 250 252 253 254 255 257 258 259 260 261 263 265 268 270 272 273 275 278 278 277 277 281 284 286 284 279 274 273 274 277 278 278 277 279 280 282 284 285 284 280 277 276 278 280 281 285 289 288 281
nan nan nan nan nan nan nan nan nan nan nan nan nan nan nan nan nan nan nan nan nan nan nan nan nan 236 239 243 247 247 247 246 246 247 248 249 251 252 254 255 256 257 258 259 260 260 262 263 266 270 274 274 272 269 270 270 272 275 275 276 277 278 276 273 274 278 279 278 278 280 280 282 284 285 283 278 273 271 275 280 284 288 291 287 280
nan nan nan nan nan nan nan nan nan nan nan nan nan nan nan nan nan nan nan nan nan nan nan nan 238 240 241 244 247 248 248 248 248 247 247 249 251 253 253 254 256 258 258 259 260 260 261 262 264 265 265 266 269 270 270 270 271 271 272 274 276 277 276 275 276 278 279 280 278 277 278 280 282 282 282 280 276 273 274 278 281 284 286 282 275
nan nan nan nan nan nan nan nan nan nan nan nan nan nan nan nan nan nan nan nan nan nan nan nan 244 245 245 247 248 248 247 247 247 247 247 247 249 250 252 253 254 257 259 260 260 261 262 262 263 264 264 264 265 268 269 269 269 268 268 268 269 272 274 274 272 272 272 273 275 276 278 277 274 272 273 275 274 272 273 275 277 280 282 278 270
nan nan nan nan nan nan nan nan nan nan nan nan nan nan nan nan nan nan nan nan nan nan nan nan 250 250 249 248 248 249 248 247 246 246 246 246 247 249 250 251 253 256 259 261 261 261 261 262 263 265 265 265 266 267 268 269 270 270 269 269 270 270 270 270 271 270 273 274 275 276 274 272 271 270 268 267 267 270 274 277 280 281 278 273 269
nan nan nan nan nan nan nan nan nan nan nan nan nan nan nan nan nan nan nan nan nan nan nan 250 252 254 253 251 250 251 250 248 247 246 246 246 247 248 250 252 255 258 261 263 263 263 263 262 263 264 266 267 268 269 269 269 269 269 270 271 272 271 270 268 267 269 271 273 274 273 271 269 268 267 265 263 264 267 270 274 277 275 271 nan nan
nan nan nan nan nan nan nan nan nan nan nan nan nan nan nan nan nan nan nan nan nan nan nan 251 252 254 254 253 253 253 253 252 250 249 248 249 250 251 253 257 261 265 267 268 268 267 265 264 264 nan 267 269 270 270 270 270 271 272 271 267 265 265 266 268 269 267 267 270 273 273 272 270 267 266 267 267 nan nan nan 272 275 274 269 nan nan